This demonstration page uses our WeatherBlox Daily Observations layout. Learn more.

Left ArrowRight Arrow

Hourly Observations for September 16, 2020

Temp ( °F °C ) Dew Point ( °F °C ) Humidity (%) Winds ( mph kmh ) Pressure ( in mb ) Visibility ( mi km ) Precip ( " mm )
12:15 am 00:15 Clear 64 17.6 53 11.8 69 69 S 3 6 29.99 1016 10 16 0.00 0.00
12:35 am 00:35 Clear 64 17.7 53 11.6 68 68 S 5 7 29.99 1016 10 16 0.00 0.00
12:55 am 00:55 Clear 64 17.7 53 11.6 68 68 S 5 7 29.99 1016 10 16 0.00 0.00
1:15 am 01:15 Clear 64 17.5 53 11.6 69 69 SSE 5 7 29.99 1016 10 16 0.00 0.00
1:35 am 01:35 Clear 63 17 53 11.5 70 70 S 3 6 30.00 1016 10 16 0.00 0.00
1:55 am 01:55 Clear 61 16.2 52 11.2 72 72 Calm 30.01 1016 10 16 0.00 0.00
2:15 am 02:15 Clear 56 13.2 51 10.6 84 84 Calm 30.03 1017 10 16 0.00 0.00
2:35 am 02:35 Clear 53 11.9 51 10.3 90 90 N 3 6 30.04 1017 10 16 0.00 0.00
2:55 am 02:55 Clear 53 11.4 50 10.1 92 92 Calm 30.05 1018 10 16 0.00 0.00
3:15 am 03:15 Clear 53 11.5 50 10 91 91 Calm 30.05 1018 10 16 0.00 0.00
3:35 am 03:35 Clear 52 11.1 50 10 93 93 Calm 30.04 1017 10 16 0.00 0.00
3:55 am 03:55 Clear 53 11.5 51 10.4 93 93 Calm 30.04 1017 10 16 0.00 0.00
4:15 am 04:15 Clear 52 11.1 50 9.8 92 92 Calm 30.04 1017 10 16 0.00 0.00
4:35 am 04:35 Clear 52 10.9 50 9.8 93 93 N 5 7 30.05 1018 10 16 0.00 0.00
4:55 am 04:55 Clear 51 10.5 49 9.5 94 94 N 5 7 30.08 1019 10 16 0.00 0.00
5:15 am 05:15 Clear 51 10.5 49 9.5 94 94 Calm 30.08 1019 10 16 0.00 0.00
5:35 am 05:35 Clear 50 10.1 48 9 93 93 Calm 30.08 1019 10 16 0.00 0.00
5:55 am 05:55 Clear 49 9.6 47 8.6 94 94 WSW 3 6 30.08 1019 10 16 0.00 0.00
6:15 am 06:15 Clear 49 9.5 47 8.5 94 94 W 3 6 30.09 1019 10 16 0.00 0.00
6:35 am 06:35 Clear 49 9.6 48 8.9 95 95 NNW 8 13 30.11 1020 7 11 0.00 0.00
6:55 am 06:55 Clear 50 9.8 48 9 95 95 NNW 6 9 30.12 1020 10 16 0.00 0.00
7:10 am 07:10 Clear 50 9.9 48 8.8 93 93 NW 5 7 30.12 1020 10 16 0.00 0.00
7:36 am 07:36 Sunny 55 13 54 12 94 94 NNW 6 9 30.11 1020 10 16 0.00 0.00
7:56 am 07:56 Sunny 57 14 54 12 88 88 N 8 13 30.12 1020 10 16 0.00 0.00
8:15 am 08:15 Sunny 59 15.1 55 13 87 87 N 9 15 30.11 1020 10 16 0.00 0.00
8:35 am 08:35 Sunny 60 15.7 56 13.3 86 86 N 8 13 30.12 1020 10 16 0.00 0.00
8:55 am 08:55 Sunny 62 16.5 56 13.4 82 82 N 12 19 30.12 1020 10 16 0.00 0.00
9:15 am 09:15 Sunny 62 16.9 56 13.6 81 81 N 9 15 30.13 1020 10 16 0.00 0.00
9:35 am 09:35 Sunny 63 17.4 56 13.5 78 78 NNE 10 17 30.13 1020 10 16 0.00 0.00
9:55 am 09:55 Sunny 64 18 55 13 73 73 NNE 10 17 30.14 1021 10 16 0.00 0.00
10:15 am 10:15 Sunny 65 18.5 55 13 71 71 NNE 14 22 30.14 1021 10 16 0.00 0.00
10:35 am 10:35 Sunny 66 19 55 12.9 68 68 NNE 18 30 30.14 1021 10 16 0.00 0.00
10:55 am 10:55 Sunny 67 19.5 55 12.5 64 64 NNE 18 30 30.15 1021 10 16 0.00 0.00
11:15 am 11:15 Sunny 68 19.9 54 12 61 61 NNE 17 28 30.15 1021 10 16 0.00 0.00
11:35 am 11:35 Sunny 68 20 53 11.7 59 59 NNE 14 22 30.15 1021 10 16 0.00 0.00
11:55 am 11:55 Sunny 69 20.5 53 11.8 58 58 NNE 13 20 30.15 1021 7 11 0.00 0.00
12:15 pm 12:15 Sunny 70 21.3 52 11 52 52 NE 13 20 30.14 1021 7 11 0.00 0.00
12:35 pm 12:35 Sunny 71 21.7 52 11 51 51 NNE 15 24 30.14 1021 7 11 0.00 0.00
12:55 pm 12:55 Hazy 71 21.9 51 10.6 49 49 NE 16 26 30.14 1020 5 8 0.00 0.00
1:15 pm 13:15 Hazy 72 22.4 51 10.6 47 47 NE 17 28 30.13 1020 5 8 0.00 0.00
1:35 pm 13:35 Hazy 72 22.4 52 11 49 49 NNE 13 20 30.13 1020 5 8 0.00 0.00
1:55 pm 13:55 Hazy 73 22.5 52 11.1 49 49 NNE 17 28 30.13 1020 5 8 0.00 0.00
2:15 pm 14:15 Hazy 73 22.7 52 11 48 48 NNE 14 22 30.13 1020 5 8 0.00 0.00
2:35 pm 14:35 Hazy 73 22.9 52 11.1 47 47 NNE 12 19 30.13 1020 5 8 0.00 0.00
2:55 pm 14:55 Sunny 74 23.2 52 11.1 47 47 NNE 12 19 30.12 1020 7 11 0.00 0.00
3:15 pm 15:15 Sunny 74 23.6 51 10.8 45 45 NE 10 17 30.12 1020 7 11 0.00 0.00
3:35 pm 15:35 Sunny 74 23.3 51 10.6 45 45 NNE 14 22 30.12 1020 7 11 0.00 0.00
3:55 pm 15:55 Sunny 74 23.5 51 10.5 44 44 NE 15 24 30.12 1020 7 11 0.00 0.00
4:15 pm 16:15 Sunny 74 23.2 51 10.6 45 45 NNE 12 19 30.12 1020 7 11 0.00 0.00
4:35 pm 16:35 Sunny 73 22.9 51 10.5 46 46 NE 13 20 30.13 1020 7 11 0.00 0.00
4:55 pm 16:55 Sunny 72 22.4 50 10.2 46 46 NNE 14 22 30.13 1020 7 11 0.00 0.00
5:15 pm 17:15 Sunny 72 22.2 50 9.8 45 45 NE 16 26 30.13 1020 7 11 0.00 0.00
5:35 pm 17:35 Sunny 71 21.8 49 9.7 46 46 NNE 10 17 30.14 1021 7 11 0.00 0.00
5:55 pm 17:55 Sunny 71 21.5 50 9.9 48 48 NNE 9 15 30.14 1021 7 11 0.00 0.00
6:15 pm 18:15 Sunny 70 21.1 50 10.2 50 50 NNE 10 17 30.15 1021 7 11 0.00 0.00
6:35 pm 18:35 Sunny 69 20.5 50 10.2 52 52 NE 5 7 30.16 1021 7 11 0.00 0.00
6:55 pm 18:55 Sunny 67 19.7 51 10.8 57 57 NE 5 7 30.16 1021 7 11 0.00 0.00
7:15 pm 19:15 Sunny 66 18.7 52 11.1 61 61 NE 6 9 30.17 1022 7 11 0.00 0.00
7:35 pm 19:35 Sunny 63 17.4 52 11 66 66 NNE 5 7 30.18 1022 7 11 0.00 0.00
7:55 pm 19:55 Clear 62 16.4 52 11 71 71 NNE 5 7 30.20 1023 10 16 0.00 0.00
8:15 pm 20:15 Clear 58 14.5 52 11.2 81 81 N 6 9 30.23 1024 7 11 0.00 0.00
8:35 pm 20:35 Clear 58 14.2 51 10.8 80 80 NNE 6 9 30.23 1024 7 11 0.00 0.00
8:55 pm 20:55 Clear 56 13.6 51 10.6 82 82 NNE 6 9 30.24 1024 10 16 0.00 0.00
9:15 pm 21:15 Clear 55 13 51 10.5 85 85 NNE 5 7 30.25 1024 7 11 0.00 0.00
9:35 pm 21:35 Clear 55 12.5 50 10.1 85 85 NNE 5 7 30.26 1025 10 16 0.00 0.00
9:55 pm 21:55 Clear 54 12.1 50 9.8 86 86 NNE 5 7 30.26 1025 7 11 0.00 0.00
10:15 pm 22:15 Clear 54 12 49 9.5 85 85 NE 6 9 30.26 1025 10 16 0.00 0.00
10:35 pm 22:35 Clear 53 11.9 49 9.3 84 84 NE 5 7 30.26 1025 10 16 0.00 0.00
10:55 pm 22:55 Clear 53 11.5 48 9.1 85 85 NE 7 11 30.27 1025 10 16 0.00 0.00
11:15 pm 23:15 Clear 52 11.2 48 9 86 86 NNE 5 7 30.26 1025 10 16 0.00 0.00
11:35 pm 23:35 Clear 52 11.3 48 9 86 86 NNE 3 6 30.26 1025 7 11 0.00 0.00
11:55 pm 23:55 Clear 51 10.6 48 8.8 89 89 NNE 5 7 30.27 1025 10 16 0.00 0.00

Powered by AerisWeather